| time (UTC) | temp C | wind direction | speed KPH | gust KPH | rain 1hr cm | rain 24hr cm | rain mn cm | humidity % | barometer mb |
| 20260905005411 | 30 | 205 | 6.4 | 17.7 | 0.00 | 0.00 | 0.00 | 20 | 1016.5 |
| 20260905004511 | 30 | 205 | 4.8 | 19.3 | 0.00 | 0.00 | 0.00 | 19 | 1016.5 |
| 20260905003611 | 30 | 220 | 3.2 | 14.5 | 0.00 | 0.00 | 0.00 | 19 | 1016.5 |
| 20260905002711 | 31 | 206 | 3.2 | 12.9 | 0.00 | 0.00 | 0.00 | 19 | 1016.5 |
| 20260905001811 | 31 | 213 | 4.8 | 19.3 | 0.00 | 0.00 | 0.00 | 19 | 1016.5 |
| 20260905000911 | 32 | 273 | 0.0 | 3.2 | 0.00 | 0.00 | 0.00 | 19 | 1016.5 |
| 20260905000011 | 32 | 239 | 0.0 | 8.0 | 0.00 | 0.00 | 0.00 | 18 | 1016.5 |
| 20260904235411 | 32 | 248 | 1.6 | 14.5 | 0.00 | 0.00 | 0.00 | 18 | 1016.5 |
| 20260904234511 | 32 | 203 | 3.2 | 19.3 | 0.00 | 0.00 | 0.00 | 19 | 1016.5 |
| 20260904233611 | 32 | 211 | 1.6 | 19.3 | 0.00 | 0.00 | 0.00 | 18 | 1016.5 |
| 20260904232711 | 32 | 157 | 3.2 | 24.1 | 0.00 | 0.00 | 0.00 | 19 | 1016.5 |
| 20260904231811 | 31 | 179 | 4.8 | 17.7 | 0.00 | 0.00 | 0.00 | 20 | 1016.5 |
| 20260904230911 | 31 | 193 | 6.4 | 17.7 | 0.00 | 0.00 | 0.00 | 20 | 1016.5 |
| 20260904230011 | 32 | 185 | 4.8 | 16.1 | 0.00 | 0.00 | 0.00 | 20 | 1016.5 |
| 20260904225411 | 32 | 178 | 3.2 | 16.1 | 0.00 | 0.00 | 0.00 | 20 | 1016.5 |
| 20260904224511 | 32 | 175 | 6.4 | 19.3 | 0.00 | 0.00 | 0.00 | 20 | 1016.5 |
| 20260904223611 | 31 | 151 | 4.8 | 19.3 | 0.00 | 0.00 | 0.00 | 20 | 1016.5 |
| 20260904222711 | 31 | 107 | 3.2 | 14.5 | 0.00 | 0.00 | 0.00 | 22 | 1016.5 |
| 20260904221811 | 31 | 181 | 4.8 | 16.1 | 0.00 | 0.00 | 0.00 | 20 | 1016.5 |
| 20260904220911 | 31 | 184 | 0.0 | 8.0 | 0.00 | 0.00 | 0.00 | 24 | 1016.5 |
| 20260904220011 | 31 | 58 | 1.6 | 9.7 | 0.00 | 0.00 | 0.00 | 26 | 1016.5 |
| 20260904215411 | 31 | 60 | 3.2 | 9.7 | 0.00 | 0.00 | 0.00 | 27 | 1016.5 |
| 20260904214511 | 30 | 61 | 1.6 | 9.7 | 0.00 | 0.00 | 0.00 | 27 | 1016.5 |
| 20260904213632 | 30 | 0 | 0.0 | 0.0 | 0.00 | 0.00 | 0.00 | 28 | 1016.5 |
| 20260904212711 | 30 | 0 | 0.0 | 1.6 | 0.00 | 0.00 | 0.00 | 28 | 1016.5 |
| 20260904211811 | 30 | 0 | 0.0 | 0.0 | 0.00 | 0.00 | 0.00 | 28 | 1016.5 |
| 20260904210911 | 29 | 61 | 0.0 | 6.4 | 0.00 | 0.00 | 0.00 | 30 | 1016.5 |
| 20260904210011 | 29 | 61 | 1.6 | 8.0 | 0.00 | 0.00 | 0.00 | 29 | 1016.5 |
| 20260904205411 | 30 | 61 | 0.0 | 6.4 | 0.00 | 0.00 | 0.00 | 29 | 1016.5 |
| 20260904204532 | 30 | 56 | 1.6 | 12.9 | 0.00 | 0.00 | 0.00 | 29 | 1016.5 |
| 20260904203632 | 30 | 27 | 1.6 | 6.4 | 0.00 | 0.00 | 0.00 | 29 | 1016.5 |
| 20260904202711 | 30 | 24 | 1.6 | 12.9 | 0.00 | 0.00 | 0.00 | 28 | 1016.5 |
| 20260904201811 | 30 | 27 | 1.6 | 9.7 | 0.00 | 0.00 | 0.00 | 27 | 1016.5 |
| 20260904200932 | 30 | 26 | 1.6 | 9.7 | 0.00 | 0.00 | 0.00 | 29 | 1016.5 |
| 20260904200032 | 29 | 26 | 1.6 | 9.7 | 0.00 | 0.00 | 0.00 | 30 | 1016.5 |
| 20260904195411 | 29 | 28 | 3.2 | 12.9 | 0.00 | 0.00 | 0.00 | 28 | 1016.5 |
| 20260904194532 | 29 | 46 | 3.2 | 12.9 | 0.00 | 0.00 | 0.00 | 29 | 1016.5 |
| 20260904193632 | 29 | 24 | 1.6 | 8.0 | 0.00 | 0.00 | 0.00 | 29 | 1016.5 |
| 20260904192711 | 28 | 319 | 4.8 | 16.1 | 0.00 | 0.00 | 0.00 | 28 | 1016.5 |
| 20260904191811 | 28 | 307 | 3.2 | 16.1 | 0.00 | 0.00 | 0.00 | 29 | 1016.5 |
| 20260904190932 | 28 | 322 | 1.6 | 9.7 | 0.00 | 0.00 | 0.00 | 29 | 1016.5 |
| 20260904190011 | 29 | 15 | 1.6 | 16.1 | 0.00 | 0.00 | 0.00 | 28 | 1016.5 |
| 20260904185411 | 29 | 10 | 4.8 | 16.1 | 0.00 | 0.00 | 0.00 | 29 | 1016.5 |
| 20260904184511 | 29 | 343 | 1.6 | 8.0 | 0.00 | 0.00 | 0.00 | 29 | 1016.5 |
| 20260904183611 | 30 | 3 | 1.6 | 8.0 | 0.00 | 0.00 | 0.00 | 27 | 1016.5 |
| 20260904182711 | 30 | 360 | 1.6 | 8.0 | 0.00 | 0.00 | 0.00 | 26 | 1016.5 |
| 20260904181811 | 30 | 351 | 3.2 | 11.3 | 0.00 | 0.00 | 0.00 | 27 | 1016.5 |
| 20260904180932 | 30 | 2 | 3.2 | 9.7 | 0.00 | 0.00 | 0.00 | 26 | 1016.5 |
| 20260904180011 | 30 | 267 | 3.2 | 16.1 | 0.00 | 0.00 | 0.00 | 27 | 1016.5 |
| 20260904175411 | 29 | 183 | 1.6 | 11.3 | 0.00 | 0.00 | 0.00 | 28 | 1016.5 |
| 20260904174532 | 28 | 180 | 0.0 | 6.4 | 0.00 | 0.00 | 0.00 | 29 | 1016.5 |
| 20260904173611 | 27 | 181 | 1.6 | 8.0 | 0.00 | 0.00 | 0.00 | 28 | 1016.5 |
| 20260904172711 | 28 | 185 | 6.4 | 16.1 | 0.00 | 0.00 | 0.00 | 28 | 1016.5 |
| 20260904171811 | 28 | 77 | 6.4 | 20.9 | 0.00 | 0.00 | 0.00 | 28 | 1016.5 |
| 20260904170911 | 28 | 69 | 8.0 | 16.1 | 0.00 | 0.00 | 0.00 | 30 | 1016.5 |
| 20260904170011 | 28 | 70 | 8.0 | 17.7 | 0.00 | 0.00 | 0.00 | 30 | 1016.5 |
| 20260904165411 | 28 | 66 | 6.4 | 17.7 | 0.00 | 0.00 | 0.00 | 30 | 1016.5 |
| 20260904164532 | 27 | 67 | 9.7 | 17.7 | 0.00 | 0.00 | 0.00 | 31 | 1016.5 |
| 20260904163611 | 27 | 67 | 8.0 | 24.1 | 0.00 | 0.00 | 0.00 | 31 | 1016.5 |
| 20260904162711 | 27 | 62 | 8.0 | 17.7 | 0.00 | 0.00 | 0.00 | 31 | 1016.5 |
| 20260904161811 | 27 | 63 | 8.0 | 19.3 | 0.00 | 0.00 | 0.00 | 33 | 1016.5 |
| 20260904160911 | 27 | 65 | 8.0 | 17.7 | 0.00 | 0.00 | 0.00 | 33 | 1016.5 |
| 20260904160011 | 27 | 59 | 4.8 | 16.1 | 0.00 | 0.00 | 0.00 | 33 | 1016.5 |
| 20260904155432 | 27 | 69 | 4.8 | 14.5 | 0.00 | 0.00 | 0.00 | 34 | 1016.5 |
| 20260904154511 | 26 | 70 | 6.4 | 17.7 | 0.00 | 0.00 | 0.00 | 33 | 1016.5 |
| 20260904153611 | 26 | 68 | 8.0 | 14.5 | 0.00 | 0.00 | 0.00 | 35 | 1016.5 |
| 20260904152711 | 26 | 72 | 6.4 | 14.5 | 0.00 | 0.00 | 0.00 | 35 | 1016.5 |
| 20260904151832 | 26 | 74 | 4.8 | 11.3 | 0.00 | 0.00 | 0.00 | 35 | 1016.5 |
| 20260904150932 | 26 | 76 | 3.2 | 11.3 | 0.00 | 0.00 | 0.00 | 37 | 1016.5 |
| 20260904150011 | 26 | 141 | 0.0 | 6.4 | 0.00 | 0.00 | 0.00 | 36 | 1016.5 |
| 20260904145411 | 26 | 141 | 0.0 | 6.4 | 0.00 | 0.00 | 0.00 | 36 | 1016.5 |
| 20260904144532 | 25 | 0 | 0.0 | 1.6 | 0.00 | 0.00 | 0.00 | 36 | 1016.5 |
| 20260904143611 | 25 | 208 | 0.0 | 8.0 | 0.00 | 0.00 | 0.00 | 35 | 1016.5 |
| 20260904142711 | 24 | 181 | 0.0 | 8.0 | 0.00 | 0.00 | 0.00 | 34 | 1016.5 |
| 20260904141832 | 24 | 186 | 1.6 | 9.7 | 0.00 | 0.00 | 0.00 | 35 | 1016.5 |
| 20260904140932 | 23 | 199 | 1.6 | 11.3 | 0.00 | 0.00 | 0.00 | 35 | 1016.5 |
| 20260904140011 | 23 | 190 | 4.8 | 12.9 | 0.00 | 0.00 | 0.00 | 36 | 1016.5 |
| 20260904135411 | 22 | 199 | 4.8 | 16.1 | 0.00 | 0.00 | 0.00 | 36 | 1016.5 |
| 20260904134511 | 22 | 195 | 6.4 | 16.1 | 0.00 | 0.00 | 0.00 | 36 | 1016.5 |
| 20260904133632 | 22 | 193 | 6.4 | 12.9 | 0.00 | 0.00 | 0.00 | 37 | 1016.5 |
| 20260904132732 | 21 | 204 | 3.2 | 14.5 | 0.00 | 0.00 | 0.00 | 37 | 1016.5 |
| 20260904131811 | 21 | 219 | 1.6 | 11.3 | 0.00 | 0.00 | 0.00 | 37 | 1016.5 |
| 20260904130911 | 21 | 210 | 4.8 | 17.7 | 0.00 | 0.00 | 0.00 | 37 | 1016.5 |
| 20260904130011 | 22 | 208 | 4.8 | 17.7 | 0.00 | 0.00 | 0.00 | 37 | 1016.5 |
| 20260904125432 | 22 | 217 | 3.2 | 12.9 | 0.00 | 0.00 | 0.00 | 36 | 1016.5 |
| 20260904124511 | 22 | 206 | 3.2 | 12.9 | 0.00 | 0.00 | 0.00 | 35 | 1016.5 |
| 20260904123633 | 22 | 205 | 3.2 | 12.9 | 0.00 | 0.00 | 0.00 | 34 | 1016.5 |
| 20260904122711 | 22 | 205 | 3.2 | 11.3 | 0.00 | 0.00 | 0.00 | 34 | 1016.5 |
| 20260904121811 | 22 | 204 | 3.2 | 12.9 | 0.00 | 0.00 | 0.00 | 35 | 1016.5 |
| 20260904120911 | 22 | 202 | 3.2 | 14.5 | 0.00 | 0.00 | 0.00 | 35 | 1016.5 |
| 20260904120011 | 22 | 202 | 3.2 | 11.3 | 0.00 | 0.00 | 0.00 | 35 | 1016.5 |
| 20260904115411 | 22 | 204 | 3.2 | 12.9 | 0.00 | 0.00 | 0.00 | 35 | 1016.5 |
| 20260904114511 | 22 | 210 | 1.6 | 14.5 | 0.00 | 0.00 | 0.00 | 35 | 1016.5 |
| 20260904113611 | 22 | 201 | 4.8 | 17.7 | 0.00 | 0.00 | 0.00 | 35 | 1016.5 |
| 20260904112711 | 22 | 205 | 3.2 | 17.7 | 0.00 | 0.00 | 0.00 | 34 | 1016.5 |
| 20260904111832 | 22 | 218 | 1.6 | 11.3 | 0.00 | 0.00 | 0.00 | 35 | 1016.5 |
| 20260904110911 | 22 | 199 | 4.8 | 12.9 | 0.00 | 0.00 | 0.00 | 34 | 1016.5 |
| 20260904110011 | 22 | 207 | 4.8 | 12.9 | 0.00 | 0.00 | 0.00 | 34 | 1016.5 |
| 20260904105411 | 22 | 203 | 3.2 | 12.9 | 0.00 | 0.00 | 0.00 | 34 | 1016.5 |
| 20260904104511 | 22 | 215 | 1.6 | 9.7 | 0.00 | 0.00 | 0.00 | 34 | 1016.5 |
| 20260904103611 | 22 | 224 | 3.2 | 16.1 | 0.00 | 0.00 | 0.00 | 33 | 1016.5 |
| 20260904102711 | 22 | 225 | 3.2 | 14.5 | 0.00 | 0.00 | 0.00 | 33 | 1016.5 |
| 20260904101811 | 23 | 214 | 1.6 | 11.3 | 0.00 | 0.00 | 0.00 | 33 | 1016.5 |
| 20260904100911 | 23 | 205 | 4.8 | 17.7 | 0.00 | 0.00 | 0.00 | 33 | 1016.5 |